Regional Weather Roundup
Issued by NWS

Home | Current Version | Previous Version | Text Only | Print | Product List | Glossary On
Versions: 1 2 3 4 5 6 7 8 9 10 11 12 13 14 15 16 17 18 19 20 21 22 23 24 25 26 27 28 29 30 31 32 33 34 35 36 37 38 39 40 41 42 43 44 45 46 47 48 49 50
000
ASUS43 KBIS 291410
RWRND

NORTH DAKOTA REGIONAL WEATHER ROUNDUP
NATIONAL WEATHER SERVICE BISMARCK ND
900 AM CDT FRI MAY 29 2015

NOTE: "FAIR" INDICATES FEW OR NO CLOUDS BELOW 12,000 FEET WITH NO
SIGNIFICANT WEATHER AND/OR OBSTRUCTIONS TO VISIBILITY.


NDZ001>003-009>011-017-291500-
NORTHWEST NORTH DAKOTA

CITY           SKY/WX    TMP DP  RH WIND       PRES   REMARKS
WILLISTON      CLOUDY    46  32  58 N12       30.30R
MINOT          CLOUDY    45  34  65 N16       30.24R
MINOT AFB      CLOUDY    45  40  82 N18G24    30.24R
$$

NDZ018>021-031>035-040>046-291500-
SOUTHWEST NORTH DAKOTA

CITY           SKY/WX    TMP DP  RH WIND       PRES   REMARKS
BISMARCK       CLOUDY    48  42  80 N18G24    30.19R
DICKINSON      CLOUDY    44  33  65 N14       30.23R
GARRISON         N/A     46  36  68 N12G26    30.22R
HETTINGER ARPT CLOUDY    44  41  89 N17G26    30.22R
$$

NDZ004>008-012>016-024-026-027-054-291500-
NORTHEAST NORTH DAKOTA

CITY           SKY/WX    TMP DP  RH WIND       PRES   REMARKS
GRAND FORKS    CLOUDY    44  39  82 N26G36    30.10R
GRND FRKS AFB  CLOUDY    44  36  74 N29G37    30.12R
DEVILS LAKE    CLOUDY    46  32  57 N23G36    30.16R
$$

NDZ022-023-025-028>030-036>039-047>053-291500-
SOUTHEAST NORTH DAKOTA

CITY           SKY/WX    TMP DP  RH WIND       PRES   REMARKS
FARGO          CLOUDY    49  44  83 N22G30    30.05R
JAMESTOWN      CLOUDY    48  41  76 N29G37    30.10R
$$



USA.gov is the U.S. government's official web portal to all federal, state and local government web resources and services.